Date,TemperatureHighF,TemperatureAvgF,TemperatureLowF,DewpointHighF,DewpointAvgF,DewpointLowF,HumidityHigh,HumidityAvg,HumidityLow,PressureMaxIn,PressureMinIn,WindSpeedMaxMPH,WindSpeedAvgMPH,GustSpeedMaxMPH,PrecipitationSumIn
2013-1-1,44,37,33,34,31,28,89,78,64,0.00,40.00,5,2,6,0.00
2013-1-2,48,38,34,29,28,26,81,69,44,0.00,40.00,0,0,2,0.00
2013-1-3,41,34,27,37,28,22,100,83,47,0.00,40.00,3,2,6,0.00
2013-1-4,45,40,37,43,39,37,100,95,85,0.00,40.00,3,2,8,0.00
2013-1-5,44,42,40,39,36,34,97,82,70,0.00,40.00,2,1,6,0.00
2013-1-6,44,42,40,43,42,40,100,99,96,0.00,40.00,3,2,8,0.00
2013-1-7,49,45,41,45,43,41,100,92,81,0.00,40.00,5,4,13,0.00
2013-1-8,51,49,45,51,48,41,100,97,87,0.00,40.00,8,5,18,0.01
2013-1-9,50,50,49,50,50,49,100,100,100,0.00,40.00,7,6,16,0.01
2013-1-10,38,37,36,36,36,36,100,96,93,0.00,40.00,2,2,5,0.00
2013-1-11,35,31,28,30,28,26,100,89,69,0.00,40.00,3,1,5,0.00
2013-1-12,37,30,25,28,25,22,100,81,58,0.00,40.00,5,1,8,0.00
2013-1-13,26,26,26,26,26,26,100,100,100,0.00,40.00,0,0,1,0.00
2013-1-14,37,34,33,29,28,27,84,77,68,0.00,40.00,3,1,6,0.00
2013-1-15,35,35,35,29,29,29,80,80,80,0.00,40.00,1,1,2,0.00
2013-1-17,35,32,30,35,32,30,100,100,100,0.00,40.00,1,0,3,0.00
2013-1-18,37,34,33,37,34,33,100,100,100,0.00,40.00,3,2,6,0.00
2013-1-19,35,34,32,35,34,32,100,100,100,0.00,40.00,2,1,3,0.00
2013-1-20,37,34,32,37,34,32,100,100,100,0.00,40.00,5,2,7,0.00
2013-1-21,35,33,31,35,33,31,100,100,100,0.00,40.00,3,2,7,0.00
2013-1-22,38,33,31,37,33,31,100,100,100,0.00,40.00,2,1,3,0.00
2013-1-23,42,40,38,42,38,35,100,93,84,0.00,40.00,2,2,6,0.00
2013-1-24,42,42,42,42,42,42,100,100,100,0.00,40.00,1,1,7,0.00
2013-1-25,44,43,42,43,42,42,100,98,95,0.00,40.00,1,0,3,0.00
2013-1-26,41,40,39,41,40,39,100,100,100,0.00,40.00,1,1,3,0.00
2013-1-27,42,41,40,41,40,38,100,94,88,0.00,40.00,6,3,10,0.00
2013-1-29,42,42,42,42,42,42,100,100,100,0.00,40.00,2,2,6,0.00
2013-1-31,49,48,46,47,46,45,100,94,85,0.00,40.00,3,2,7,0.00
2013-2-1,50,47,44,46,44,42,100,92,76,0.00,40.00,2,1,6,0.00
2013-2-2,41,39,38,40,39,38,100,99,98,0.00,40.00,3,2,6,0.00
2013-2-3,45,45,45,45,45,44,100,100,100,0.00,40.00,3,3,6,0.00
2013-2-4,44,44,44,44,44,44,100,100,100,0.00,40.00,1,1,3,0.00
2013-2-5,44,44,44,44,44,44,100,100,99,0.00,40.00,3,2,12,0.00
2013-2-6,45,44,43,44,43,43,100,99,96,0.00,40.00,3,2,6,0.00
2013-2-7,50,45,41,41,36,31,92,72,52,0.00,40.00,6,3,17,0.00
2013-2-8,42,37,35,35,35,35,100,92,77,0.00,40.00,2,1,3,0.00
2013-2-9,45,43,41,38,37,36,88,79,70,0.00,40.00,1,0,2,0.00
2013-2-10,43,43,43,37,36,36,79,78,77,0.00,40.00,3,2,6,0.00
2013-2-11,47,47,47,38,38,38,71,71,71,0.00,40.00,2,2,5,0.00
2013-2-12,50,46,44,45,44,43,100,93,78,0.00,40.00,7,4,15,0.00
2013-2-13,48,47,46,46,46,45,100,96,91,0.00,40.00,3,2,9,0.00
2013-2-14,43,43,43,43,43,43,100,100,100,0.00,40.00,3,3,6,0.00
2013-2-18,43,43,43,36,36,36,76,76,76,0.00,40.00,2,2,5,0.00
2013-2-20,45,42,40,40,39,37,100,91,73,0.00,40.00,5,2,9,0.00
2013-2-21,43,42,40,40,39,38,100,92,83,0.00,40.00,5,3,13,0.00
2013-2-22,42,42,42,42,42,42,99,99,99,0.00,40.00,6,6,17,0.00
2013-2-23,47,47,47,35,35,35,62,62,62,0.00,40.00,3,3,5,0.00
2013-2-24,41,41,41,34,34,34,77,77,77,0.00,40.00,3,3,6,0.00
2013-2-25,52,46,40,34,34,33,80,64,49,0.00,40.00,7,4,17,0.00
2013-2-26,40,38,35,36,35,34,96,90,84,0.00,40.00,1,0,6,0.00
2013-2-27,41,41,41,39,39,39,92,92,92,0.00,40.00,1,1,3,0.00
2013-2-28,51,48,43,51,48,43,100,100,100,0.00,40.00,3,2,10,0.00
2013-3-1,57,54,51,52,50,47,100,88,72,0.00,40.00,6,5,15,0.00
2013-3-2,58,51,41,50,46,39,100,87,64,0.00,40.00,6,4,13,0.01
2013-3-3,49,41,36,39,35,31,100,81,50,0.00,40.00,3,1,6,0.01
2013-3-4,53,41,32,34,29,25,100,67,36,0.00,40.00,5,2,12,0.00
2013-3-5,50,45,39,39,35,26,82,68,55,0.00,40.00,5,2,9,0.00
2013-3-6,43,41,41,41,39,37,100,92,85,0.00,40.00,6,2,12,0.01
2013-3-7,50,44,39,43,40,39,100,90,66,0.00,40.00,3,1,7,0.01
2013-3-8,52,44,38,38,37,36,100,78,59,0.00,40.00,7,3,12,0.00
2013-3-9,54,41,33,38,36,33,100,85,52,0.00,40.00,2,1,5,0.00
2013-3-10,40,40,40,36,36,36,86,86,86,0.00,40.00,1,1,2,0.00
2013-3-14,51,51,51,46,46,46,82,82,82,0.00,40.00,1,1,7,0.00
2013-5-20,56,55,55,46,45,44,69,68,67,0.00,40.00,2,2,6,0.00
2013-5-21,57,52,49,48,45,43,94,76,62,0.00,40.00,7,2,13,0.02
2013-5-22,54,49,46,47,45,43,99,88,68,0.00,40.00,3,1,9,0.00
2013-5-23,57,51,46,46,44,40,97,77,57,0.00,40.00,5,2,12,0.00
2013-5-24,63,53,46,50,45,42,100,77,47,0.00,40.00,6,2,9,0.00
2013-5-25,64,56,51,48,45,42,86,68,45,0.00,40.00,5,1,7,0.00
2013-5-26,65,56,50,53,50,48,97,81,59,0.00,40.00,3,1,8,0.00
2013-5-27,60,56,52,57,53,48,99,90,78,0.00,40.00,3,1,7,0.00
2013-5-28,64,56,53,53,49,45,97,78,60,0.00,40.00,2,1,10,0.00
2013-5-29,64,54,50,50,48,46,100,81,56,0.00,40.00,6,1,12,0.00
2013-5-30,61,55,49,48,46,43,85,70,54,0.00,40.00,5,2,18,0.00
2013-5-31,67,57,51,48,45,40,85,65,37,0.00,40.00,5,2,8,0.00
2013-6-1,74,61,52,48,46,42,80,59,38,0.00,40.00,8,2,16,0.00
2013-6-2,71,61,53,52,48,43,96,64,42,0.00,40.00,6,2,9,0.00
2013-6-3,72,61,50,51,50,48,100,70,43,0.00,40.00,6,2,9,0.00
2013-6-4,77,62,49,54,50,45,100,69,39,0.00,40.00,6,2,14,0.00
2013-6-5,76,63,54,54,50,46,82,63,43,0.00,40.00,7,2,12,0.00
2013-6-6,78,66,52,54,49,39,96,57,26,0.00,40.00,6,3,13,0.00
2013-6-7,67,61,56,52,47,44,77,60,45,0.00,40.00,5,1,12,0.00
2013-6-8,68,61,54,49,47,45,72,61,49,0.00,40.00,6,3,10,0.00
2013-6-9,66,58,53,47,46,42,78,64,47,0.00,40.00,5,2,10,0.00
2013-6-10,71,61,47,47,45,41,88,58,37,0.00,40.00,5,2,13,0.00
2013-6-11,67,58,53,48,45,44,74,63,45,0.00,40.00,5,2,13,0.00
2013-6-12,56,54,53,50,48,46,80,79,78,0.00,40.00,0,0,2,0.00
2013-6-13,67,67,67,46,46,46,46,46,46,0.00,40.00,3,3,6,0.00
2013-6-14,58,58,58,46,46,46,64,64,64,0.00,40.00,1,1,7,0.00
2013-6-15,72,61,50,52,50,47,88,68,49,0.00,40.00,5,2,9,0.00
2013-6-16,74,73,72,54,54,53,52,50,49,0.00,40.00,1,0,3,0.00
2013-6-17,76,73,70,52,49,46,52,44,35,0.00,40.00,3,2,10,0.00
2013-6-18,74,74,73,44,42,41,34,33,32,0.00,40.00,2,2,7,0.00
2013-6-19,63,63,63,51,51,51,65,65,65,0.00,40.00,5,5,8,0.00
2013-6-20,55,55,55,51,51,51,86,86,86,0.00,40.00,1,1,5,0.00
2013-8-21,78,65,51,55,52,48,96,65,39,0.00,40.00,8,2,14,0.00
2013-8-22,82,69,56,56,52,50,82,59,34,0.00,40.00,7,2,12,0.00
2013-8-23,75,68,62,57,55,54,82,65,52,0.00,40.00,3,2,12,0.00
2013-8-24,73,66,60,56,54,51,78,65,46,0.00,40.00,3,2,7,0.00
2013-8-25,73,64,54,58,53,50,90,69,46,0.00,40.00,3,1,8,0.00
2013-8-26,72,65,62,57,56,55,84,74,56,0.00,40.00,1,0,7,0.00
2013-8-27,75,67,62,60,58,57,92,75,57,0.00,40.00,3,1,6,0.00
2013-8-28,74,72,68,63,62,60,77,72,63,0.00,40.00,3,1,5,0.00
2013-8-29,72,66,64,66,64,61,97,92,73,0.00,40.00,3,1,6,0.01
2013-8-30,78,70,64,61,57,50,90,68,38,0.00,40.00,5,2,8,0.01
2013-8-31,80,68,57,58,56,54,91,69,45,0.00,40.00,3,1,6,0.00
2013-9-4,69,65,60,60,59,58,95,82,70,0.00,40.00,6,2,9,0.00
2013-9-5,65,62,59,60,59,58,98,89,77,0.00,40.00,3,2,6,0.00
2013-9-6,70,64,61,62,61,59,99,89,72,0.00,40.00,3,1,6,0.00
2013-9-7,71,64,60,61,59,56,96,84,63,0.00,40.00,3,1,6,0.00
2013-9-8,79,68,57,61,59,57,99,74,48,0.00,40.00,3,1,6,0.00
2013-9-9,78,65,58,60,58,56,96,80,50,0.00,40.00,7,3,9,0.00
2013-9-10,77,67,57,60,59,56,97,77,55,0.00,40.00,6,2,9,0.00
2013-9-17,62,58,56,54,52,50,92,79,66,0.00,40.00,2,0,5,0.00
2013-9-18,56,56,56,54,52,51,93,88,82,0.00,40.00,1,0,3,0.00
2013-9-19,81,63,48,53,50,47,96,66,36,0.00,40.00,2,0,3,0.00
2013-9-20,77,64,53,57,53,51,97,70,42,0.00,40.00,3,1,7,0.00
2013-9-21,69,60,56,58,54,52,95,81,54,0.00,40.00,3,1,12,0.00
2013-9-22,61,58,56,56,53,51,94,83,71,0.00,40.00,8,2,16,0.00
2013-9-23,61,56,54,54,51,47,95,84,70,0.00,40.00,5,1,17,0.00
2013-9-24,66,57,52,51,49,45,97,76,48,0.00,40.00,3,2,10,0.00
2013-9-25,58,53,49,49,47,45,94,81,62,0.00,40.00,6,4,14,0.00
2013-9-26,62,52,45,49,47,45,100,85,55,0.00,40.00,5,1,9,0.00
2013-9-27,57,54,51,52,51,49,96,87,78,0.00,40.00,5,1,15,0.00
2013-11-10,50,48,45,45,44,43,96,87,78,0.00,40.00,5,2,8,0.00
2013-11-11,54,47,43,45,44,43,99,90,72,0.00,40.00,1,0,2,0.00
2013-11-12,55,54,53,51,50,50,92,88,83,0.00,40.00,5,4,12,0.00
2013-11-13,55,55,55,46,46,46,71,71,71,0.00,40.00,2,2,5,0.00
2013-11-15,46,46,46,43,43,43,90,90,90,0.00,40.00,7,7,24,0.00
2013-11-16,43,42,40,40,40,40,99,94,88,0.00,40.00,3,2,7,0.01
2013-12-31,45,42,38,41,40,38,100,93,86,0.00,40.00,2,2,3,0.00
2014-1-1,40,38,35,39,37,35,100,100,98,0.00,40.00,5,2,6,0.00
2014-1-2,42,42,42,42,42,42,100,100,100,0.00,40.00,0,0,0,0.00